Regional Weather Roundup
Issued by NWS Newport/Morehead, NC

Current Version | Previous Version | Graphics & Text | Print | Product List | Glossary Off
Versions: 1 2 3 4 5 6 7 8 9 10 11 12 13 14 15 16 17 18 19 20 21 22 23 24 25 26 27 28 29 30 31 32 33 34 35 36 37 38 39 40 41 42 43 44 45 46 47 48 49 50

957
ASUS42 KMHX 291625
RWRMHX
WEATHER ROUNDUP FOR EASTERN NORTH CAROLINA
NATIONAL WEATHER SERVICE NEWPORT/MOREHEAD CITY NC
1200 PM EDT WED MAR 29 2017

NOTE: "FAIR" INDICATES FEW OR NO CLOUDS BELOW 12,000 FEET
WITH NO SIGNIFICANT WEATHER AND/OR OBSTRUCTIONS TO VISIBILITY

NCZ015>017-031-032-045>047-102-103-291700-
NORTH COAST

CITY           SKY/WX    TMP DP  RH WIND       PRES   REMARKS
EDENTON        MOSUNNY   66  52  60 NE7       30.09S
ELIZABETH CITY SUNNY     64  49  57 NE15      30.09R
KITTY HAWK     NOT AVBL
MANTEO         PTSUNNY   56  47  72 NE15      30.09S

$$

NCZ045>047-081-094-103-104-291700-
CENTRAL COAST

CITY           SKY/WX    TMP DP  RH WIND       PRES   REMARKS
FRISCO         CLOUDY    56  49  77 NE10G22   30.07R

$$

NCZ095-097-098-100-101-291700-
SOUTHERN COAST

CITY           SKY/WX    TMP DP  RH WIND       PRES   REMARKS
BEAUFORT       PTSUNNY   63  55  75 NE13G22   30.08R
CEDAR ISLAND   NOT AVBL
JACKSONVILLE   CLOUDY    65  58  78 NE10      30.07R
PINEY ISLAND   PTSUNNY  N/A N/A N/A NE14G22   30.08R
WILMINGTON     SUNNY     73  56  54 E12       30.05R


$$

NCZ011>013-027>030-043-044-078>080-089-090>093-098-291700-
COASTAL PLAIN

CITY           SKY/WX    TMP DP  RH WIND       PRES   REMARKS
AHOSKIE          N/A     62  52  68 N7        30.09F
CLINTON        MOSUNNY   70  58  65 NE7       30.09R
ELIZABETHTOWN  PTSUNNY   73  58  58 N7        30.06S
GOLDSBORO      MOSUNNY   70  57  64 NE12      30.07S
GREENVILLE     CLOUDY    64  54  68 NE7       30.11S
HAVELOCK       NOT AVBL
KENANSVILLE    PTSUNNY   70  55  60 NE7       30.09R
KINSTON        PTSUNNY   66  54  63 NE10      30.10R
NEW BERN       PTSUNNY   64  57  78 NE14      30.10R
RICHLANDS      CLOUDY    64  57  78 NE10      30.09R
ROCKY MOUNT    PTSUNNY   68  54  60 NE7       30.10R
WASHINGTON     MOSUNNY   61  53  74 E5        30.10S
WHITEVILLE     SUNNY     73  57  57 NE8       30.05R

$$

AMZ130-135-150-152-154-156-158-170-250-252-270-ANZ085-086-088-633-658-670-291700-
MARINE OBSERVATIONS

STATION/POSITION TIME  TEMP    WIND        PRES    WAVE   SWELL
                       AIR SEA DIR/SP/G            HT/PER HT/PER
                 (UTC) (F)     (DEG/KT/KT) (MB)    (FT/S) (FT/S)
CHESAPEAKE LIGHT NOT AVBL
64 E VA BEACH    1550   49 47   10/ 17/ 19 1017.8    6/10   3/10
DUCK             1600   50 49   20/ 11/ 12 1018.5
2 E DUCK         1600      51                N/A     4/ 5   2/11
OREGON INLET     1600   51 58   10/ 11/ 15 1018.5
13E OREGON INLT  1548      49                N/A     6/ 6   5/ 6
HATTERAS CG      1600   53 61   20/ 16/ 23 1018.1
DIAMOND BUOY     1550   56 73   20/ 21/ 23 1017.3    6/10   3/10
CAPE LOOKOUT     1600   58      30/ 19/ 24 1018.1
BEAUFORT LAB     1600   60 62   40/ 12/ 18 1017.6
30 SE NEW RVR IN 1608   60      60/ 16/ 21 1017.8
30 SE NEW RVR IN 1613      64                N/A     5/10   2/11
27 SE WRIGHTSVLE 1608   64 73   70/ 19/ 27 1017.2
5 SE WRIGHTSVLE  1608   61 59   70/ 14/ 21 1017.6
225 S CAPE HAT   1550   72 72  270/ 10/ 12 1014.9    6/11   7/11
41 SE CHARLESTON 1550   70 71   20/  6/  6 1016.4    4/10   3/10

$$




USA.gov is the U.S. government's official web portal to all federal, state and local government web resources and services.